Weather History for Benson, MN

Change the Weather History Date:

Wednesday, November 21, 2012

  Actual Average Record
Temperature  
Mean Temperature 44 °F -  
Max Temperature 60 °F 36 °F 62 °F (1960)
Min Temperature 28 °F 19 °F -5 °F (1964)
Degree Days  
Heating Degree Days 21    
Moisture  
Dew Point 35 °F    
Average Humidity 69    
Maximum Humidity 93    
Minimum Humidity 45    
Precipitation  
Precipitation 0.00 in - - ()
Sea Level Pressure  
Sea Level Pressure 29.80 in    
Wind  
Wind Speed 7 mph (South)    
Max Wind Speed 15 mph    
Max Gust Speed 17 mph    
Visibility 10 miles    
Events      
Averages and records for this station are not official NWS values.
T = Trace of Precipitation, MM = Missing Value Source: NWS Daily Summary

Daily Weather History Graph

Daily Weather History Graph

Search for Another Location

Airport:

Trip Planner

Search our weather history database for the weather conditions in past years. The results will help you decide how hot, cold, wet, or windy it might be!

Date:

Astronomy

Nov. 21, 2012 Rise Set
Actual Time 7:29 AM CST 4:46 PM CST
Civil Twilight 6:57 AM CST 5:19 PM CST
Nautical Twilight 6:21 AM CST 5:55 PM CST
Astronomical Twilight 5:45 AM CST 6:30 PM CST
Moon 1:19 PM CST (11/21) 12:32 AM CST (11/21)
Length of Visible Light 10h 22m
Length of Day
9h 16m
First Quarter, 62% of the Moon is Illuminated
Nov 21
First Quarter
Nov 28
Full
Dec 6
Last Quarter
Dec 13
New
Dec 19
First Quarter

Hourly Weather History & Observations

Time (CST) Temp. Windchill Dew Point Humidity Pressure Visibility Wind Dir Wind Speed Gust Speed Precip Events Conditions
12:13 AM 41.0 °F 35.8 °F 30.2 °F 65% 29.93 in 10.0 mi SSE 8.1 mph - N/A   Clear
12:32 AM 39.2 °F 33.0 °F 30.2 °F 70% 29.92 in 10.0 mi SSE 9.2 mph - N/A   Clear
12:52 AM 39.2 °F 33.6 °F 30.2 °F 70% 29.92 in 10.0 mi SSE 8.1 mph - N/A   Clear
1:09 AM 39.2 °F 34.2 °F 30.2 °F 70% 29.92 in 10.0 mi South 6.9 mph - N/A   Clear
1:32 AM 39.2 °F 34.2 °F 30.2 °F 70% 29.91 in 10.0 mi SSE 6.9 mph - N/A   Clear
1:53 AM 39.2 °F 35.0 °F 30.2 °F 70% 29.91 in 10.0 mi South 5.8 mph - N/A   Clear
2:12 AM 37.4 °F 32.8 °F 30.2 °F 75% 29.91 in 10.0 mi South 5.8 mph - N/A   Clear
2:32 AM 37.4 °F 32.8 °F 30.2 °F 75% 29.91 in 10.0 mi South 5.8 mph - N/A   Clear
2:53 AM 37.4 °F 33.8 °F 30.2 °F 75% 29.92 in 10.0 mi South 4.6 mph - N/A   Clear
3:12 AM 35.6 °F 32.8 °F 30.2 °F 81% 29.91 in 10.0 mi SSE 3.5 mph - N/A   Clear
3:32 AM 30.2 °F - 28.4 °F 93% 29.91 in 10.0 mi Calm Calm - N/A   Clear
3:53 AM 32.0 °F 28.7 °F 28.4 °F 87% 29.91 in 10.0 mi South 3.5 mph - N/A   Clear
4:12 AM 32.0 °F 27.5 °F 28.4 °F 87% 29.90 in 10.0 mi South 4.6 mph - N/A   Clear
4:33 AM 32.0 °F 27.5 °F 28.4 °F 87% 29.91 in 10.0 mi SSW 4.6 mph - N/A   Clear
4:53 AM 30.2 °F 25.4 °F 28.4 °F 93% 29.90 in 10.0 mi South 4.6 mph - N/A   Clear
5:12 AM 32.0 °F 26.4 °F 30.2 °F 93% 29.91 in 10.0 mi South 5.8 mph - N/A   Clear
5:33 AM 33.8 °F 30.8 °F 30.2 °F 87% 29.90 in 10.0 mi South 3.5 mph - N/A   Clear
5:53 AM 30.2 °F - 28.4 °F 93% 29.90 in 10.0 mi Calm Calm - N/A   Clear
6:12 AM 28.4 °F - 26.6 °F 93% 29.91 in 10.0 mi Calm Calm - N/A   Clear
6:33 AM 30.2 °F - 28.4 °F 93% 29.91 in 10.0 mi Calm Calm - N/A   Clear
6:52 AM 32.0 °F - 28.4 °F 87% 29.91 in 10.0 mi Calm Calm - N/A   Clear
7:12 AM 30.2 °F - 28.4 °F 93% 29.90 in 10.0 mi Calm Calm - N/A   Clear
7:33 AM 30.2 °F 25.4 °F 28.4 °F 93% 29.90 in 10.0 mi South 4.6 mph - N/A   Clear
7:52 AM 33.8 °F 29.6 °F 30.2 °F 87% 29.91 in 10.0 mi South 4.6 mph - N/A   Clear
8:13 AM 33.8 °F - 30.2 °F 87% 29.91 in 10.0 mi Calm Calm - N/A   Clear
8:33 AM 33.8 °F 30.8 °F 30.2 °F 87% 29.90 in 10.0 mi SE 3.5 mph - N/A   Clear
8:52 AM 35.6 °F - 33.8 °F 93% 29.90 in 10.0 mi Calm Calm - N/A   Clear
9:13 AM 39.2 °F 37.0 °F 33.8 °F 81% 29.90 in 10.0 mi SSE 3.5 mph - N/A   Clear
9:33 AM 42.8 °F 40.1 °F 35.6 °F 76% 29.90 in 10.0 mi South 4.6 mph - N/A   Clear
10:13 AM 46.4 °F 44.3 °F 35.6 °F 66% 29.88 in 10.0 mi South 4.6 mph - N/A   Clear
10:52 AM 48.2 °F - 37.4 °F 66% 29.87 in 10.0 mi South 5.8 mph - N/A   Clear
11:13 AM 51.8 °F - 37.4 °F 58% 29.86 in 10.0 mi South 6.9 mph - N/A   Clear
11:33 AM 51.8 °F - 37.4 °F 58% 29.85 in 10.0 mi South 5.8 mph - N/A   Clear
11:52 AM 53.6 °F - 39.2 °F 58% 29.84 in 10.0 mi South 6.9 mph - N/A   Clear
12:13 PM 55.4 °F - 39.2 °F 54% 29.84 in 10.0 mi South 8.1 mph - N/A   Clear
12:33 PM 55.4 °F - 39.2 °F 54% 29.83 in 10.0 mi South 9.2 mph - N/A   Clear
12:52 PM 57.2 °F - 39.2 °F 51% 29.81 in 10.0 mi South 8.1 mph - N/A   Clear
1:13 PM 57.2 °F - 39.2 °F 51% 29.81 in 10.0 mi SSE 11.5 mph - N/A   Clear
1:33 PM 59.0 °F - 39.2 °F 48% 29.79 in 10.0 mi South 15.0 mph - N/A   Clear
1:52 PM 59.0 °F - 39.2 °F 48% 29.78 in 10.0 mi South 13.8 mph - N/A   Clear
2:18 PM 59.0 °F - 39.2 °F 48% 29.77 in 10.0 mi South 11.5 mph - N/A   Clear
2:33 PM 60.8 °F - 39.2 °F 45% 29.76 in 10.0 mi South 9.2 mph - N/A   Clear
2:52 PM 59.0 °F - 39.2 °F 48% 29.76 in 10.0 mi South 9.2 mph - N/A   Clear
3:13 PM 60.8 °F - 39.2 °F 45% 29.75 in 10.0 mi SSE 9.2 mph - N/A   Clear
3:33 PM 59.0 °F - 41.0 °F 51% 29.74 in 10.0 mi South 10.4 mph - N/A   Clear
3:58 PM 57.2 °F - 41.0 °F 55% 29.73 in 10.0 mi Calm Calm - N/A   Clear
4:12 PM 55.4 °F - 41.0 °F 58% 29.72 in 10.0 mi SE 8.1 mph - N/A   Clear
4:33 PM 55.4 °F - 39.2 °F 54% 29.72 in 10.0 mi SE 6.9 mph - N/A   Clear
4:53 PM 55.4 °F - 39.2 °F 54% 29.70 in 10.0 mi Calm Calm - N/A   Clear
5:12 PM 55.4 °F - 39.2 °F 54% - 10.0 mi South 13.8 mph 17.3 mph N/A   Clear
5:33 PM 53.6 °F - 39.2 °F 58% 29.69 in 10.0 mi South 12.7 mph - N/A   Clear
5:53 PM 55.4 °F - 39.2 °F 54% 29.68 in 10.0 mi South 11.5 mph - N/A   Clear
6:12 PM 53.6 °F - 39.2 °F 58% 29.68 in 10.0 mi South 12.7 mph - N/A   Clear
6:33 PM 51.8 °F - 39.2 °F 62% 29.68 in 10.0 mi South 8.1 mph - N/A   Clear
6:53 PM 51.8 °F - 37.4 °F 58% 29.67 in 10.0 mi South 9.2 mph - N/A   Clear
7:12 PM 51.8 °F - 37.4 °F 58% 29.66 in 10.0 mi South 9.2 mph - N/A   Clear
7:33 PM 53.6 °F - 39.2 °F 58% 29.65 in 10.0 mi South 9.2 mph - N/A   Clear
7:53 PM 53.6 °F - 39.2 °F 58% 29.64 in 10.0 mi South 9.2 mph - N/A   Clear
8:12 PM 53.6 °F - 39.2 °F 58% 29.64 in 10.0 mi South 10.4 mph - N/A   Clear
8:33 PM 51.8 °F - 39.2 °F 62% 29.64 in 10.0 mi South 8.1 mph - N/A   Clear
8:53 PM 50.0 °F - 39.2 °F 66% 29.63 in 10.0 mi SSW 9.2 mph - N/A   Clear
9:12 PM 51.8 °F - 39.2 °F 62% 29.63 in 10.0 mi SSW 9.2 mph - N/A   Clear
9:33 PM 51.8 °F - 39.2 °F 62% 29.62 in 10.0 mi SSW 10.4 mph - N/A   Clear
9:53 PM 50.0 °F - 39.2 °F 66% 29.62 in 10.0 mi South 8.1 mph - N/A   Clear
10:12 PM 50.0 °F - 39.2 °F 66% 29.61 in 10.0 mi SSW 8.1 mph - N/A   Clear
10:33 PM 48.2 °F - 39.2 °F 71% 29.61 in 10.0 mi SSW 8.1 mph - N/A   Clear
10:53 PM 48.2 °F - 39.2 °F 71% 29.60 in 10.0 mi SSW 12.7 mph - N/A   Clear
11:12 PM 50.0 °F - 39.2 °F 66% 29.59 in 10.0 mi SSW 11.5 mph - N/A   Clear
11:33 PM 48.2 °F - 39.2 °F 71% 29.58 in 10.0 mi SSW 10.4 mph - N/A   Clear
11:52 PM 48.2 °F - 41.0 °F 76% 29.58 in 10.0 mi SSW 10.4 mph - N/A   Clear